• Currently

    Reported at Minneapolis, Minneapolis-St. Paul International Airport, MN
    9:53 AM CST SUN JUL 23 2017
  • 73°F23°C
  • Mostly Cloudy
    Mostly Cloudy
  • Feels Like:73°F23°CDew Point:59°F15°CHumidity:61% Winds:NNW 12 mph 19 kph
    Pressure:29.91 in1013 hPaVisibility:10.00 miles16090.00 meters
Time Weather Temp Dew Point
Humidity Winds Visibility Pressure Precipitation
1 hr 24 hr
Saturday, July 15
23:53 23:53 Mostly Clear Mostly Clear 68°F20°C 57°F14°C 68% SSW 5 mphSSW 7 kph 10.0 miles16.1 km 30.15 in1021 hPa 0.00 in0.00 mm --
22:53 22:53 Mostly Clear Mostly Clear 70°F21°C 57°F14°C 64% SW 6 mphSW 9 kph 10.0 miles16.1 km 30.12 in1020 hPa 0.00 in0.00 mm --
21:53 21:53 Clear Clear 72°F22°C 57°F14°C 59% SW 5 mphSW 7 kph 10.0 miles16.1 km 30.12 in1020 hPa 0.00 in0.00 mm --
20:53 20:53 Sunny Sunny 72°F22°C 56°F13°C 57% SW 7 mphSW 11 kph 10.0 miles16.1 km 30.09 in1019 hPa 0.00 in0.00 mm --
19:53 19:53 Sunny Sunny 74°F23°C 56°F13°C 54% WSW 7 mphWSW 11 kph 10.0 miles16.1 km 30.12 in1020 hPa 0.00 in0.00 mm --
18:53 18:53 Sunny Sunny 75°F24°C 56°F13°C 52% N 5 mphN 7 kph 10.0 miles16.1 km 30.15 in1021 hPa 0.00 in0.00 mm --
17:53 17:53 Mostly Sunny Mostly Sunny 76°F24°C 56°F13°C 50% SSW 6 mphSSW 9 kph 10.0 miles16.1 km 30.15 in1021 hPa 0.00 in0.00 mm --
16:53 16:53 Partly Cloudy Partly Cloudy 76°F24°C 55°F13°C 48% CalmCalm 10.0 miles16.1 km 30.15 in1021 hPa 0.00 in0.00 mm --
15:53 15:53 Partly Cloudy Partly Cloudy 77°F25°C 56°F13°C 48% N 3 mphN 6 kph 10.0 miles16.1 km 30.18 in1022 hPa 0.00 in0.00 mm --
14:53 14:53 Partly Cloudy Partly Cloudy 74°F23°C 55°F13°C 52% N 5 mphN 7 kph 10.0 miles16.1 km 30.18 in1022 hPa 0.00 in0.00 mm --
13:53 13:53 Partly Cloudy Partly Cloudy 72°F22°C 54°F12°C 53% WNW 6 mphWNW 9 kph 10.0 miles16.1 km 30.18 in1022 hPa 0.00 in0.00 mm --
12:53 12:53 Mostly Cloudy Mostly Cloudy 74°F23°C 54°F12°C 50% NE 7 mphNE 11 kph 10.0 miles16.1 km 30.21 in1023 hPa 0.00 in0.00 mm --
11:53 11:53 Cloudy Cloudy 69°F21°C 53°F12°C 57% N 6 mphN 9 kph 10.0 miles16.1 km 30.21 in1023 hPa 0.00 in0.00 mm --
11:12 11:12 Cloudy Cloudy 68°F20°C 53°F12°C 59% CalmCalm 10.0 miles16.1 km 30.21 in1023 hPa 0.00 in0.00 mm --
10:53 10:53 Cloudy Cloudy 68°F20°C 53°F12°C 59% NNE 5 mphNNE 7 kph 10.0 miles16.1 km 30.21 in1023 hPa 0.00 in0.00 mm --
09:53 09:53 Cloudy Cloudy 66°F19°C 52°F11°C 61% NE 5 mphNE 7 kph 10.0 miles16.1 km 30.21 in1023 hPa 0.00 in0.00 mm --
09:02 09:02 Mostly Cloudy Mostly Cloudy 65°F18°C 53°F12°C 66% ENE 3 mphENE 6 kph 10.0 miles16.1 km 30.21 in1023 hPa 0.00 in0.00 mm --
08:53 08:53 Mostly Cloudy Mostly Cloudy 65°F18°C 53°F12°C 66% N 3 mphN 6 kph 10.0 miles16.1 km 30.21 in1023 hPa 0.00 in0.00 mm --
07:53 07:53 Cloudy Cloudy 62°F17°C 52°F11°C 70% NE 5 mphNE 7 kph 10.0 miles16.1 km 30.21 in1023 hPa 0.00 in0.00 mm --
07:28 07:28 Cloudy Cloudy 62°F17°C 53°F12°C 73% NE 7 mphNE 11 kph 10.0 miles16.1 km 30.21 in1023 hPa 0.00 in0.00 mm --
06:53 06:53 Mostly Cloudy Mostly Cloudy 62°F17°C 54°F12°C 75% NNE 6 mphNNE 9 kph 10.0 miles16.1 km 30.21 in1023 hPa 0.00 in0.00 mm --
05:53 05:53 Mostly Cloudy Mostly Cloudy 60°F16°C 54°F12°C 80% NNE 3 mphNNE 6 kph 10.0 miles16.1 km 30.21 in1023 hPa 0.00 in0.00 mm --
04:53 04:53 Mostly Cloudy Mostly Cloudy 60°F16°C 53°F12°C 78% NNE 6 mphNNE 9 kph 10.0 miles16.1 km 30.18 in1022 hPa 0.00 in0.00 mm --
03:53 03:53 Cloudy Cloudy 61°F16°C 53°F12°C 75% NNE 7 mphNNE 11 kph 10.0 miles16.1 km 30.18 in1022 hPa 0.00 in0.00 mm --
02:53 02:53 Cloudy Cloudy 62°F17°C 53°F12°C 73% N 7 mphN 11 kph 10.0 miles16.1 km 30.18 in1022 hPa 0.00 in0.00 mm --
01:53 01:53 Cloudy Cloudy 62°F17°C 53°F12°C 73% N 5 mphN 7 kph 10.0 miles16.1 km 30.18 in1022 hPa 0.00 in0.00 mm --
00:53 00:53 Cloudy Cloudy 62°F17°C 53°F12°C 73% N 6 mphN 9 kph 10.0 miles16.1 km 30.18 in1022 hPa 0.00 in0.00 mm --